Regional Weather Roundup
Issued by NWS

Home | Current Version | Previous Version | Graphics & Text | Print | Product List | Glossary On
Versions: 1 2 3 4 5 6 7 8 9 10 11 12 13 14 15 16 17 18 19 20 21 22 23 24 25 26 27 28 29 30 31 32 33 34 35 36 37 38 39 40 41 42 43 44 45 46 47 48 49 50
000
ASUS43 KIND 280259
RWRIN

WEATHER ROUNDUP FOR INDIANA
NATIONAL WEATHER SERVICE INDIANAPOLIS IN
1100 PM EDT SAT AUG 27 2016

NOTE: "FAIR" INDICATES FEW OR NO CLOUDS BELOW 12,000 FEET WITH NO
SIGNIFICANT WEATHER AND/OR OBSTRUCTIONS TO VISIBILITY.

* - STATION DOES NOT REPORT WEATHER SUCH AS PRECIPITATION OR FOG.

+ - STATION NOT QUALITY CONTROLLED BY THE NATIONAL WEATHER SERVICE.
    USE DATA WITH CAUTION...ESPECIALLY DEWPOINT AND RELATIVE
    HUMIDITY OBSERVATIONS.

INZ001>003-010>013-019-020-280400-
NORTHWEST INDIANA

CITY           SKY/WX    TMP DP  RH WIND       PRES   REMARKS
GARY /AIRPORT/ MOCLDY    75  75 100 CALM      30.09R
KNOX *+        CLEAR     72  59  64 S3        30.10R
MONTICELLO +   CLEAR     76  70  80 CALM      30.10R
RENSSELAER +   PTCLDY    75  73  94 CALM      30.10S

$$

LMZ046-743>745-280400-
SOUTHERN LAKE MICHIGAN

STATION/POSITION TIME  TEMP    WIND        PRES    WAVE
                       AIR SEA DIR/SP/G            HT
                 (UTC) (F)     (DEG/KT/KT) (MB)    (FT)
BURNS HARBOR     0200   79     190/  7/  9 1018.6R
MICHIGAN CITY    0200   79     160/  9/ 13   N/A
5NW MICH CITY    0200   78 76  180/  6/  8   N/A     1

$$

INZ004-005-014>016-021>024-280400-
NORTH CENTRAL INDIANA

CITY           SKY/WX    TMP DP  RH WIND       PRES   REMARKS
GOSHEN         CLEAR     73  69  87 S5        30.11R
PERU/GRISSOM   PTCLDY    74  73  96 S2        30.10S
SOUTH BEND     CLEAR     74  72  93 S5        30.11R

$$

INZ006>009-017-018-025>027-280400-
NORTHEAST INDIANA

CITY           SKY/WX    TMP DP  RH WIND       PRES   REMARKS
ANGOLA *+      CLEAR     72  64  78 CALM      30.12S
FORT WAYNE     MOCLDY    72  69  90 CALM      30.13R

$$

INZ028-029-035-036-043>045-051>053-280400-
WEST CENTRAL INDIANA

CITY           SKY/WX    TMP DP  RH WIND       PRES   REMARKS
CRAWFORDSVL +  CLOUDY    70  70 100 CALM      30.11F
GREENCASTLE +  MOCLDY    72  72 100 CALM      30.13R
LAFAYETTE      CLEAR     76  72  87 CALM      30.10R
TERRE HAUTE    CLOUDY    75  71  87 CALM      30.10F

$$

INZ030>032-037>040-046>048-054>057-064-065-280400-
CENTRAL INDIANA

CITY           SKY/WX    TMP DP  RH WIND       PRES   REMARKS
INDIANAPOLIS   PTCLDY    76  72  87 SE7       30.12S
-EAGLE CREEK   PTCLDY    75  73  93 SE3       30.12S
KOKOMO *+      PTCLDY    73  72  94 S6        30.12R
MT COMFORT *+  PTCLDY    70  70 100 SE3       30.14S
SHELBYVILLE    PTCLDY    75  71  87 E3        30.13R

$$

INZ033-034-041-042-049-050-058-059-280400-
EAST CENTRAL INDIANA

CITY           SKY/WX    TMP DP  RH WIND       PRES   REMARKS
MUNCIE         CLEAR     74  71  91 CALM      30.14S

$$

INZ060-061-067>069-081>083-085>088-280400-
SOUTHWEST INDIANA

CITY           SKY/WX    TMP DP  RH WIND       PRES   REMARKS
EVANSVILLE     MOCLDY    79  75  87 CALM      30.10R
HUNTINGBURG *+ CLOUDY    75  72  88 E3        30.12R

$$

INZ062-063-066-070>080-084-089>092-280400-
SOUTH CENTRAL AND SOUTHEAST INDIANA

CITY           SKY/WX    TMP DP  RH WIND       PRES   REMARKS
BLOOMINGTON    PTCLDY    73  71  93 CALM      30.13S
MADISON *+     CLOUDY    75  72  88 CALM      30.15S

$$





USA.gov is the U.S. government's official web portal to all federal, state and local government web resources and services.